TimePDT,TemperatureF,Dew PointF,Humidity,Sea Level PressureIn,VisibilityMPH,Wind Direction,Wind SpeedMPH,Gust SpeedMPH,PrecipitationIn,Events,Conditions,WindDirDegrees,DateUTC
12:27 AM,55.4,51.8,88,30.03,10.0,West,6.9,-,N/A,,Mostly Cloudy,270,2013-07-27 07:27:00
12:54 AM,55.0,52.0,89,30.00,10.0,West,9.2,-,N/A,,Overcast,280,2013-07-27 07:54:00
1:54 AM,55.0,52.0,89,29.99,10.0,West,12.7,-,N/A,,Overcast,280,2013-07-27 08:54:00
2:54 AM,55.0,52.0,89,29.98,10.0,West,10.4,-,N/A,,Overcast,270,2013-07-27 09:54:00
3:54 AM,55.0,52.0,89,29.97,10.0,West,10.4,-,N/A,,Overcast,260,2013-07-27 10:54:00
4:54 AM,55.0,52.0,89,29.97,10.0,West,9.2,-,N/A,,Overcast,280,2013-07-27 11:54:00
5:54 AM,54.0,52.0,93,29.97,10.0,WNW,9.2,-,N/A,,Overcast,290,2013-07-27 12:54:00
6:54 AM,55.0,52.0,89,29.98,10.0,WNW,9.2,-,N/A,,Overcast,290,2013-07-27 13:54:00
7:54 AM,55.0,52.0,89,29.98,10.0,WNW,8.1,-,N/A,,Overcast,290,2013-07-27 14:54:00
8:54 AM,55.9,52.0,87,29.99,10.0,West,9.2,-,N/A,,Overcast,280,2013-07-27 15:54:00
9:54 AM,59.0,52.0,78,29.98,10.0,West,9.2,-,N/A,,Overcast,280,2013-07-27 16:54:00
10:42 AM,60.8,51.8,72,30.00,10.0,West,8.1,-,N/A,,Overcast,270,2013-07-27 17:42:00
10:54 AM,62.1,52.0,70,29.98,10.0,WSW,9.2,-,N/A,,Mostly Cloudy,250,2013-07-27 17:54:00
11:21 AM,64.4,53.6,68,29.99,10.0,SW,10.4,-,N/A,,Scattered Clouds,230,2013-07-27 18:21:00
11:54 AM,66.9,54.0,63,29.96,10.0,SW,9.2,-,N/A,,Clear,230,2013-07-27 18:54:00
12:54 PM,69.1,55.0,61,29.94,10.0,SSW,11.5,-,N/A,,Clear,200,2013-07-27 19:54:00
1:54 PM,71.1,55.9,59,29.92,10.0,SSW,11.5,-,N/A,,Clear,210,2013-07-27 20:54:00
2:54 PM,73.0,57.0,57,29.89,10.0,SSW,10.4,-,N/A,,Clear,200,2013-07-27 21:54:00
3:54 PM,73.9,55.9,53,29.87,10.0,SSW,13.8,-,N/A,,Clear,200,2013-07-27 22:54:00
4:54 PM,72.0,55.9,57,29.84,10.0,SSW,16.1,-,N/A,,Clear,200,2013-07-27 23:54:00
5:54 PM,71.1,55.9,59,29.83,10.0,SSW,15.0,-,N/A,,Clear,200,2013-07-28 00:54:00
6:54 PM,66.0,55.9,70,29.83,10.0,South,13.8,-,N/A,,Clear,190,2013-07-28 01:54:00
7:54 PM,63.0,55.9,78,29.83,10.0,South,13.8,21.9,N/A,,Clear,190,2013-07-28 02:54:00
8:54 PM,60.1,53.1,78,29.84,10.0,West,8.1,-,N/A,,Clear,260,2013-07-28 03:54:00
9:54 PM,57.9,53.1,84,29.86,10.0,West,6.9,-,N/A,,Clear,270,2013-07-28 04:54:00
10:54 PM,55.9,52.0,87,29.86,10.0,West,8.1,-,N/A,,Clear,260,2013-07-28 05:54:00
11:54 PM,55.0,52.0,89,29.86,10.0,West,9.2,-,N/A,,Partly Cloudy,260,2013-07-28 06:54:00